Weather observations for the past three days for
Palm Springs Regional Airport
Imperial (Metric)
Date Time (pdt) Wind (mph) Vis. (mi.) Weather Sky Cond. Temperature (ºF) Relative Humidity Wind Chill (°F) Heat Index (°F) Pressure Precipitation (in)
Air Dwpt 6 hour altimeter (in) sea level (mb) 1 hr 3 hr 6 hr
Max. Min.
16 07:53 Calm 10.00 Fair CLR 91 57.9 33% 90 29.89 1011.5
16 06:53 SE 6 10.00 Fair CLR 88 57 35% 87 29.88 1011.1
16 05:53 Calm 10.00 Fair CLR 84 60.1 44% 84 29.86 1010.5
16 04:53 Calm 10.00 Fair CLR 84.9 59 97 84.9 42% 85 29.82 1009.3
16 03:53 SE 3 10.00 Fair CLR 87.1 59 39% 86 29.82 1009.0
16 02:53 Calm 10.00 Fair CLR 89.1 59 36% 88 29.82 1009.1
16 01:53 SE 7 10.00 Fair CLR 90 59 35% 89 29.81 1008.9
16 00:53 Calm 10.00 Fair CLR 91 59 34% 90 29.82 1009.2
15 23:53 Calm 10.00 Fair CLR 96.1 55.9 26% 94 29.82 1009.2
15 22:53 NW 10 10.00 Fair CLR 97 55.9 109 97 25% 95 29.82 1009.1
15 21:53 NW 10 10.00 Fair CLR 100 57 24% 99 29.81 1008.8
15 20:53 NW 14 10.00 Fair CLR 102.9 57 22% 102 29.8 1008.4
15 19:53 NW 12 10.00 Fair CLR 104 57.9 22% 104 29.79 1008.1
15 18:53 Vrbl 6 10.00 Fair CLR 107.1 55.9 19% 106 29.78 1007.9
15 17:53 E 7 10.00 Fair CLR 108 55 17% 107 29.79 1008.2
15 16:53 SE 9 10.00 Fair CLR 108 54 109.9 99 17% 106 29.8 1008.4
15 15:53 E 10 10.00 Fair CLR 108 60.1 21% 110 29.81 1008.9
15 14:53 S 14 G 25 10.00 Fair CLR 102.9 57.9 23% 103 29.84 1010.0
15 13:53 SE 9 10.00 Fair CLR 107.1 63 24% 110 29.86 1010.6
15 12:53 SE 7 10.00 Fair CLR 106 62.1 24% 109 29.89 1011.5
15 11:53 SE 9 G 20 10.00 Fair CLR 104 63 26% 107 29.91 1012.3
15 10:53 Vrbl 5 10.00 Fair CLR 100 66 100 84 33% 104 29.93 1013.0
15 09:53 Calm 10.00 Fair CLR 96.1 68 40% 101 29.95 1013.6
15 08:53 Vrbl 5 10.00 Fair CLR 91.9 69.1 47% 97 29.97 1014.3
15 07:53 S 3 10.00 Fair CLR 91 62.1 38% 92 29.97 1014.5
15 05:53 Vrbl 3 10.00 Fair CLR 84.9 59 42% 85 29.96 1013.9
15 04:53 N 5 10.00 Fair CLR 89.1 57.9 93.9 86 35% 88 29.95 1013.5
15 03:53 S 5 10.00 Fair CLR 87.1 57.9 37% 86 29.93 1013.1
15 02:53 N 5 10.00 A Few Clouds FEW110 90 57 33% 89 29.92 1012.7
15 01:53 Calm 10.00 Fair CLR 89.1 64 43% 90 29.94 1013.2
15 00:53 N 8 10.00 Fair CLR 90 62.1 39% 90 29.93 1013.1
14 23:53 NW 9 10.00 Fair CLR 90 63 41% 91 29.93 1013.1
14 22:53 W 3 10.00 Fair CLR 91.9 66.9 99 91.9 44% 95 29.93 1012.9
14 21:53 Calm 10.00 Fair CLR 93 66.9 42% 97 29.91 1012.4
14 20:53 N 5 10.00 Fair CLR 95 66 39% 98 29.89 1011.7
14 19:53 S 3 10.00 Fair CLR 96.1 64 35% 98 29.87 1011.0
14 18:53 Calm 10.00 Fair CLR 98.1 63 32% 100 29.87 1011.0
14 17:53 Vrbl 5 10.00 Fair CLR 97 66 36% 101 29.89 1011.6
14 16:53 NW 5 10.00 A Few Clouds FEW070 93.9 64 102 89.1 37% 96 29.92 1012.5
14 15:53 Calm 10.00 Thunderstorm NULL 91.9 64 40% 94 29.97 1014.2
14 14:53 SE 10 G 21 10.00 Light Rain SCT075 SCT090 BKN110 91 66 44% 94 29.95 1013.8
14 13:53 S 10 G 28 10.00 Thunderstorm in Vicinity Light Rain FEW050 SCT110 90 64 42% 91 29.95 1013.6
14 12:53 SE 8 G 16 10.00 Thunderstorm in Vicinity CLR 99 70 39% 106 29.96 1013.8
14 11:53 SE 10 10.00 Thunderstorm in Vicinity CLR 97 69.1 40% 103 29.98 1014.6
14 10:53 Vrbl 6 10.00 Fair CLR 97 71.1 98.1 87.1 43% 105 29.98 1014.6
14 09:53 Vrbl 3 10.00 Fair CLR 93 72 50% 101 29.98 1014.8
14 08:53 E 6 10.00 Fair CLR 91 73.9 57% 101 29.99 1015.2
14 07:53 Calm 10.00 Fair CLR 89.1 73.9 61% 98 30 1015.5
14 06:53 Vrbl 5 10.00 Fair CLR 88 73.9 63% 97 30.01 1015.7
14 05:53 E 10 10.00 Fair CLR 87.1 73.9 65% 95 30 1015.2
14 04:53 Calm 10.00 Fair CLR 89.1 60.1 98.1 89.1 38% 89 29.96 1014.0
14 03:53 N 6 10.00 Fair CLR 89.1 60.1 38% 89 29.93 1012.8
14 02:53 N 7 10.00 Fair CLR 90 60.1 37% 90 29.91 1012.3
14 01:53 N 10 10.00 Fair CLR 91 60.1 35% 91 29.92 1012.5
14 00:53 NW 6 10.00 Fair CLR 93 59 32% 92 29.91 1012.3
13 23:53 N 8 10.00 Fair CLR 95 59 30% 94 29.9 1012.0
13 22:53 N 3 10.00 Fair CLR 98.1 59 109 98.1 27% 98 29.9 1011.8
13 21:53 Calm 10.00 Fair CLR 99 64 32% 102 29.88 1011.3
13 20:53 SE 3 10.00 Fair CLR 100.9 57.9 24% 101 29.85 1010.3
13 19:53 NE 5 10.00 Fair CLR 102.9 62.1 26% 105 29.84 1009.9
13 18:53 SE 10 10.00 Fair CLR 105.1 62.1 25% 107 29.83 1009.4
13 17:53 E 6 10.00 Fair CLR 108 60.1 21% 110 29.82 1009.1
13 16:53 E 8 10.00 Fair CLR 108 57.9 109 96.1 19% 108 29.82 1009.1
13 15:53 S 5 10.00 Fair CLR 107.1 57.9 20% 107 29.84 1009.8
13 14:53 E 8 10.00 Fair CLR 105.1 59 22% 106 29.86 1010.6
13 13:53 E 13 10.00 Fair CLR 105.1 61 24% 107 29.89 1011.4
13 12:53 SE 14 10.00 Fair CLR 102.9 61 25% 104 29.89 1011.6
13 11:53 S 6 10.00 Fair CLR 100.9 62.1 28% 103 29.91 1012.1
13 10:53 S 6 10.00 Fair CLR 97 63 98.1 89.1 33% 99 29.91 1012.4
13 09:53 NE 8 10.00 Fair CLR 96.1 63 34% 98 29.92 1012.6
13 08:53 E 12 10.00 Fair CLR 97 63 33% 99 29.95 1013.7
Date Time (pdt) Wind (mph) Vis. (mi.) Weather Sky Cond. Air Dwpt Max. Min. Relative Humidity Wind Chill (°F) Heat Index (°F) altimeter (in) sea level (mb) 1 hr 3 hr 6 hr
6 hour
Temperature (ºF) Pressure Precipitation (in)